Year,Month,Day,Hour,Minute,Value (Times are PST for temperature in C)
2015,10,05,00,00,12.20
2015,10,05,00,01,12.20
2015,10,05,00,02,12.20
2015,10,05,00,03,12.20
2015,10,05,00,04,12.20
2015,10,05,00,05,12.20
2015,10,05,00,06,12.10
2015,10,05,00,07,12.10
2015,10,05,00,08,12.10
2015,10,05,00,09,12.10
2015,10,05,00,10,12.10
2015,10,05,00,11,12.10
2015,10,05,00,12,12.10
2015,10,05,00,13,12.10
2015,10,05,00,14,12.10
2015,10,05,00,15,12.10
2015,10,05,00,16,12.10
2015,10,05,00,17,12.10
2015,10,05,00,18,12.10
2015,10,05,00,19,12.10
2015,10,05,00,20,12.20
2015,10,05,00,21,12.20
2015,10,05,00,22,12.20
2015,10,05,00,23,12.20
2015,10,05,00,24,12.30
2015,10,05,00,25,12.30
2015,10,05,00,26,12.30
2015,10,05,00,27,12.30
2015,10,05,00,28,12.30
2015,10,05,00,29,12.30
2015,10,05,00,30,12.30
2015,10,05,00,31,12.30
2015,10,05,00,32,12.30
2015,10,05,00,33,12.30
2015,10,05,00,34,12.40
2015,10,05,00,35,12.40
2015,10,05,00,36,12.40
2015,10,05,00,37,12.40
2015,10,05,00,38,12.30
2015,10,05,00,39,12.30
2015,10,05,00,40,12.30
2015,10,05,00,41,12.30
2015,10,05,00,42,12.30
2015,10,05,00,43,12.30
2015,10,05,00,44,12.30
2015,10,05,00,45,12.20
2015,10,05,00,46,12.20
2015,10,05,00,47,12.20
2015,10,05,00,48,12.20
2015,10,05,00,49,12.10
2015,10,05,00,50,12.10
2015,10,05,00,51,12.10
2015,10,05,00,52,12.00
2015,10,05,00,53,12.00
2015,10,05,00,54,12.00
2015,10,05,00,55,11.90
2015,10,05,00,56,11.90
2015,10,05,00,57,11.90
2015,10,05,00,58,11.90
2015,10,05,00,59,11.90
2015,10,05,01,00,11.80
2015,10,05,01,01,11.80
2015,10,05,01,02,11.80
2015,10,05,01,03,11.80
2015,10,05,01,04,11.80
2015,10,05,01,05,11.80
2015,10,05,01,06,11.70
2015,10,05,01,07,11.70
2015,10,05,01,08,11.70
2015,10,05,01,09,11.70
2015,10,05,01,10,11.70
2015,10,05,01,11,11.60
2015,10,05,01,12,11.60
2015,10,05,01,13,11.50
2015,10,05,01,14,11.50
2015,10,05,01,15,11.40
2015,10,05,01,16,11.40
2015,10,05,01,17,11.40
2015,10,05,01,18,11.40
2015,10,05,01,19,11.40
2015,10,05,01,20,11.40
2015,10,05,01,21,11.40
2015,10,05,01,22,11.40
2015,10,05,01,23,11.40
2015,10,05,01,24,11.40
2015,10,05,01,25,11.40
2015,10,05,01,26,11.40
2015,10,05,01,27,11.40
2015,10,05,01,28,11.40
2015,10,05,01,29,11.40
2015,10,05,01,30,11.40
2015,10,05,01,31,11.40
2015,10,05,01,32,11.50
2015,10,05,01,33,11.50
2015,10,05,01,34,11.50
2015,10,05,01,35,11.50
2015,10,05,01,36,11.50
2015,10,05,01,37,11.60
2015,10,05,01,38,11.60
2015,10,05,01,39,11.60
2015,10,05,01,40,11.60
2015,10,05,01,41,11.60
2015,10,05,01,42,11.60
2015,10,05,01,43,11.60
2015,10,05,01,44,11.50
2015,10,05,01,45,11.50
2015,10,05,01,46,11.40
2015,10,05,01,47,11.40
2015,10,05,01,48,11.40
2015,10,05,01,49,11.40
2015,10,05,01,50,11.30
2015,10,05,01,51,11.30
2015,10,05,01,52,11.30
2015,10,05,01,53,11.30
2015,10,05,01,54,11.30
2015,10,05,01,55,11.30
2015,10,05,01,56,11.30
2015,10,05,01,57,11.30
2015,10,05,01,58,11.30
2015,10,05,01,59,11.30
2015,10,05,02,00,11.30
2015,10,05,02,01,11.30
2015,10,05,02,02,11.30
2015,10,05,02,03,11.30
2015,10,05,02,04,11.30
2015,10,05,02,05,11.30
2015,10,05,02,06,11.30
2015,10,05,02,07,11.40
2015,10,05,02,08,11.40
2015,10,05,02,09,11.40
2015,10,05,02,10,11.30
2015,10,05,02,11,11.30
2015,10,05,02,12,11.30
2015,10,05,02,13,11.30
2015,10,05,02,14,11.30
2015,10,05,02,15,11.30
2015,10,05,02,16,11.20
2015,10,05,02,17,11.20
2015,10,05,02,18,11.20
2015,10,05,02,19,11.20
2015,10,05,02,20,11.20
2015,10,05,02,21,11.10
2015,10,05,02,22,11.20
2015,10,05,02,23,11.10
2015,10,05,02,24,11.20
2015,10,05,02,25,11.20
2015,10,05,02,26,11.10
2015,10,05,02,27,11.10
2015,10,05,02,28,11.10
2015,10,05,02,29,11.10
2015,10,05,02,30,11.10
2015,10,05,02,31,11.10
2015,10,05,02,32,11.10
2015,10,05,02,33,11.10
2015,10,05,02,34,11.10
2015,10,05,02,35,11.00
2015,10,05,02,36,11.00
2015,10,05,02,37,10.90
2015,10,05,02,38,10.90
2015,10,05,02,39,10.90
2015,10,05,02,40,10.90
2015,10,05,02,41,10.90
2015,10,05,02,42,10.80
2015,10,05,02,43,10.80
2015,10,05,02,44,10.80
2015,10,05,02,45,10.80
2015,10,05,02,46,10.80
2015,10,05,02,47,10.80
2015,10,05,02,48,10.90
2015,10,05,02,49,10.90
2015,10,05,02,50,10.90
2015,10,05,02,51,11.00
2015,10,05,02,52,11.00
2015,10,05,02,53,11.00
2015,10,05,02,54,11.10
2015,10,05,02,55,11.10
2015,10,05,02,56,11.10
2015,10,05,02,57,11.10
2015,10,05,02,58,11.20
2015,10,05,02,59,11.20
2015,10,05,03,00,11.20
2015,10,05,03,01,11.20
2015,10,05,03,02,11.20
2015,10,05,03,03,11.20
2015,10,05,03,04,11.20
2015,10,05,03,05,11.20
2015,10,05,03,06,11.20
2015,10,05,03,07,11.20
2015,10,05,03,08,11.20
2015,10,05,03,09,11.20
2015,10,05,03,10,11.20
2015,10,05,03,11,11.20
2015,10,05,03,12,11.20
2015,10,05,03,13,11.20
2015,10,05,03,14,11.10
2015,10,05,03,15,11.10
2015,10,05,03,16,11.00
2015,10,05,03,17,10.90
2015,10,05,03,18,10.80
2015,10,05,03,19,10.70
2015,10,05,03,20,10.60
2015,10,05,03,21,10.50
2015,10,05,03,22,10.40
2015,10,05,03,23,10.30
2015,10,05,03,24,10.20
2015,10,05,03,25,10.10
2015,10,05,03,26,10.00
2015,10,05,03,27,9.90
2015,10,05,03,28,9.90
2015,10,05,03,29,9.80
2015,10,05,03,30,9.70
2015,10,05,03,31,9.70
2015,10,05,03,32,9.60
2015,10,05,03,33,9.60
2015,10,05,03,34,9.50
2015,10,05,03,35,9.50
2015,10,05,03,36,9.40
2015,10,05,03,37,9.40
2015,10,05,03,38,9.30
2015,10,05,03,39,9.30
2015,10,05,03,40,9.30
2015,10,05,03,41,9.30
2015,10,05,03,42,9.20
2015,10,05,03,43,9.20
2015,10,05,03,44,9.20
2015,10,05,03,45,9.20
2015,10,05,03,46,9.20
2015,10,05,03,47,9.20
2015,10,05,03,48,9.20
2015,10,05,03,49,9.30
2015,10,05,03,50,9.40
2015,10,05,03,51,9.50
2015,10,05,03,52,9.70
2015,10,05,03,53,9.80
2015,10,05,03,54,10.00
2015,10,05,03,55,10.10
2015,10,05,03,56,10.20
2015,10,05,03,57,10.30
2015,10,05,03,58,10.40
2015,10,05,03,59,10.40
2015,10,05,04,00,10.50
2015,10,05,04,01,10.60
2015,10,05,04,02,10.70
2015,10,05,04,03,10.70
2015,10,05,04,04,10.70
2015,10,05,04,05,10.70
2015,10,05,04,06,10.70
2015,10,05,04,07,10.70
2015,10,05,04,08,10.60
2015,10,05,04,09,10.60
2015,10,05,04,10,10.60
2015,10,05,04,11,10.50
2015,10,05,04,12,10.50
2015,10,05,04,13,10.50
2015,10,05,04,14,10.50
2015,10,05,04,15,10.50
2015,10,05,04,16,10.50
2015,10,05,04,17,10.50
2015,10,05,04,18,10.60
2015,10,05,04,19,10.60
2015,10,05,04,20,10.60
2015,10,05,04,21,10.70
2015,10,05,04,22,10.70
2015,10,05,04,23,10.70
2015,10,05,04,24,10.80
2015,10,05,04,25,10.80
2015,10,05,04,26,10.80
2015,10,05,04,27,10.80
2015,10,05,04,28,10.80
2015,10,05,04,29,10.80
2015,10,05,04,30,10.80
2015,10,05,04,31,10.80
2015,10,05,04,32,10.80
2015,10,05,04,33,10.80
2015,10,05,04,34,10.80
2015,10,05,04,35,10.80
2015,10,05,04,36,10.80
2015,10,05,04,37,10.80
2015,10,05,04,38,10.80
2015,10,05,04,39,10.80
2015,10,05,04,40,10.80
2015,10,05,04,41,10.80
2015,10,05,04,42,10.90
2015,10,05,04,43,10.90
2015,10,05,04,44,11.00
2015,10,05,04,45,11.00
2015,10,05,04,46,11.10
2015,10,05,04,47,11.10
2015,10,05,04,48,11.10
2015,10,05,04,49,11.20
2015,10,05,04,50,11.20
2015,10,05,04,51,11.20
2015,10,05,04,52,11.20
2015,10,05,04,53,11.30
2015,10,05,04,54,11.30
2015,10,05,04,55,11.30
2015,10,05,04,56,11.30
2015,10,05,04,57,11.30
2015,10,05,04,58,11.40
2015,10,05,04,59,11.40
2015,10,05,05,00,11.40
2015,10,05,05,01,11.50
2015,10,05,05,02,11.60
2015,10,05,05,03,11.60
2015,10,05,05,04,11.70
2015,10,05,05,05,11.70
2015,10,05,05,06,11.70
2015,10,05,05,07,11.80
2015,10,05,05,08,11.80
2015,10,05,05,09,11.90
2015,10,05,05,10,11.90
2015,10,05,05,11,11.90
2015,10,05,05,12,11.90
2015,10,05,05,13,12.00
2015,10,05,05,14,12.00
2015,10,05,05,15,12.00
2015,10,05,05,16,12.00
2015,10,05,05,17,12.00
2015,10,05,05,18,12.00
2015,10,05,05,19,12.00
2015,10,05,05,20,12.00
2015,10,05,05,21,12.00
2015,10,05,05,22,12.00
2015,10,05,05,23,12.00
2015,10,05,05,24,11.90
2015,10,05,05,25,11.90
2015,10,05,05,26,11.90
2015,10,05,05,27,11.80
2015,10,05,05,28,11.80
2015,10,05,05,29,11.80
2015,10,05,05,30,11.80
2015,10,05,05,31,11.80
2015,10,05,05,32,11.80
2015,10,05,05,33,11.80
2015,10,05,05,34,11.80
2015,10,05,05,35,11.80
2015,10,05,05,36,11.80
2015,10,05,05,37,11.90
2015,10,05,05,38,11.90
2015,10,05,05,39,11.90
2015,10,05,05,40,12.00
2015,10,05,05,41,12.00
2015,10,05,05,42,12.00
2015,10,05,05,43,12.00
2015,10,05,05,44,12.00
2015,10,05,05,45,12.00
2015,10,05,05,46,12.10
2015,10,05,05,47,12.10
2015,10,05,05,48,12.10
2015,10,05,05,49,12.10
2015,10,05,05,50,12.10
2015,10,05,05,51,12.20
2015,10,05,05,52,12.20
2015,10,05,05,53,12.20
2015,10,05,05,54,12.20
2015,10,05,05,55,12.20
2015,10,05,05,56,12.20
2015,10,05,05,57,12.20
2015,10,05,05,58,12.20
2015,10,05,05,59,12.20
2015,10,05,06,00,12.20
2015,10,05,06,01,12.20
2015,10,05,06,02,12.20
2015,10,05,06,03,12.10
2015,10,05,06,04,12.10
2015,10,05,06,05,12.10
2015,10,05,06,06,12.10
2015,10,05,06,07,12.10
2015,10,05,06,08,12.00
2015,10,05,06,09,12.00
2015,10,05,06,10,12.00
2015,10,05,06,11,12.00
2015,10,05,06,12,12.00
2015,10,05,06,13,12.00
2015,10,05,06,14,12.00
2015,10,05,06,15,12.00
2015,10,05,06,16,12.00
2015,10,05,06,17,12.00
2015,10,05,06,18,12.00
2015,10,05,06,19,11.90
2015,10,05,06,20,11.90
2015,10,05,06,21,11.90
2015,10,05,06,22,11.90
2015,10,05,06,23,11.90
2015,10,05,06,24,11.90
2015,10,05,06,25,11.90
2015,10,05,06,26,11.90
2015,10,05,06,27,11.90
2015,10,05,06,28,11.80
2015,10,05,06,29,11.80
2015,10,05,06,30,11.80
2015,10,05,06,31,11.80
2015,10,05,06,32,11.80
2015,10,05,06,33,11.80
2015,10,05,06,34,11.80
2015,10,05,06,35,11.70
2015,10,05,06,36,11.70
2015,10,05,06,37,11.70
2015,10,05,06,38,11.70
2015,10,05,06,39,11.70
2015,10,05,06,40,11.70
2015,10,05,06,41,11.60
2015,10,05,06,42,11.60
2015,10,05,06,43,11.60
2015,10,05,06,44,11.60
2015,10,05,06,45,11.60
2015,10,05,06,46,11.50
2015,10,05,06,47,11.50
2015,10,05,06,48,11.40
2015,10,05,06,49,11.40
2015,10,05,06,50,11.40
2015,10,05,06,51,11.30
2015,10,05,06,52,11.30
2015,10,05,06,53,11.30
2015,10,05,06,54,11.30
2015,10,05,06,55,11.20
2015,10,05,06,56,11.20
2015,10,05,06,57,11.20
2015,10,05,06,58,11.20
2015,10,05,06,59,11.20
2015,10,05,07,00,11.20
2015,10,05,07,01,11.20
2015,10,05,07,02,11.20
2015,10,05,07,03,11.20
2015,10,05,07,04,11.20
2015,10,05,07,05,11.20
2015,10,05,07,06,11.20
2015,10,05,07,07,11.20
2015,10,05,07,08,11.20
2015,10,05,07,09,11.20
2015,10,05,07,10,11.20
2015,10,05,07,11,11.20
2015,10,05,07,12,11.20
2015,10,05,07,13,11.20
2015,10,05,07,14,11.20
2015,10,05,07,15,11.10
2015,10,05,07,16,11.10
2015,10,05,07,17,11.10
2015,10,05,07,18,11.10
2015,10,05,07,19,11.00
2015,10,05,07,20,11.00
2015,10,05,07,21,11.00
2015,10,05,07,22,11.00
2015,10,05,07,23,11.00
2015,10,05,07,24,11.00
2015,10,05,07,25,10.90
2015,10,05,07,26,10.90
2015,10,05,07,27,10.90
2015,10,05,07,28,10.80
2015,10,05,07,29,10.70
2015,10,05,07,30,10.60
2015,10,05,07,31,10.50
2015,10,05,07,32,10.50
2015,10,05,07,33,10.40
2015,10,05,07,34,10.40
2015,10,05,07,35,10.40
2015,10,05,07,36,10.40
2015,10,05,07,37,10.40
2015,10,05,07,38,10.50
2015,10,05,07,39,10.50
2015,10,05,07,40,10.60
2015,10,05,07,41,10.60
2015,10,05,07,42,10.60
2015,10,05,07,43,10.70
2015,10,05,07,44,10.70
2015,10,05,07,45,10.70
2015,10,05,07,46,10.80
2015,10,05,07,47,10.80
2015,10,05,07,48,10.70
2015,10,05,07,49,10.70
2015,10,05,07,50,10.60
2015,10,05,07,51,10.60
2015,10,05,07,52,10.50
2015,10,05,07,53,10.40
2015,10,05,07,54,10.40
2015,10,05,07,55,10.30
2015,10,05,07,56,10.30
2015,10,05,07,57,10.20
2015,10,05,07,58,10.20
2015,10,05,07,59,10.20
2015,10,05,08,00,10.30
2015,10,05,08,01,10.30
2015,10,05,08,02,10.40
2015,10,05,08,03,10.50
2015,10,05,08,04,10.60
2015,10,05,08,05,10.70
2015,10,05,08,06,10.80
2015,10,05,08,07,10.80
2015,10,05,08,08,10.90
2015,10,05,08,09,11.00
2015,10,05,08,10,11.00
2015,10,05,08,11,11.10
2015,10,05,08,12,11.20
2015,10,05,08,13,11.30
2015,10,05,08,14,11.40
2015,10,05,08,15,11.50
2015,10,05,08,16,11.60
2015,10,05,08,17,11.70
2015,10,05,08,18,11.80
2015,10,05,08,19,11.90
2015,10,05,08,20,12.00
2015,10,05,08,21,12.10
2015,10,05,08,22,12.20
2015,10,05,08,23,12.30
2015,10,05,08,24,12.40
2015,10,05,08,25,12.40
2015,10,05,08,26,12.50
2015,10,05,08,27,12.60
2015,10,05,08,28,12.60
2015,10,05,08,29,12.70
2015,10,05,08,30,12.70
2015,10,05,08,31,12.80
2015,10,05,08,32,12.80
2015,10,05,08,33,12.80
2015,10,05,08,34,12.80
2015,10,05,08,35,12.90
2015,10,05,08,36,12.90
2015,10,05,08,37,12.90
2015,10,05,08,38,12.90
2015,10,05,08,39,13.00
2015,10,05,08,40,13.00
2015,10,05,08,41,13.10
2015,10,05,08,42,13.10
2015,10,05,08,43,13.10
2015,10,05,08,44,13.20
2015,10,05,08,45,13.20
2015,10,05,08,46,13.20
2015,10,05,08,47,13.30
2015,10,05,08,48,13.30
2015,10,05,08,49,13.30
2015,10,05,08,50,13.40
2015,10,05,08,51,13.40
2015,10,05,08,52,13.50
2015,10,05,08,53,13.50
2015,10,05,08,54,13.60
2015,10,05,08,55,13.60
2015,10,05,08,56,13.60
2015,10,05,08,57,13.70
2015,10,05,08,58,13.70
2015,10,05,08,59,13.70
2015,10,05,09,00,13.70
2015,10,05,09,01,13.70
2015,10,05,09,02,13.70
2015,10,05,09,03,13.70
2015,10,05,09,04,13.70
2015,10,05,09,05,13.80
2015,10,05,09,06,13.80
2015,10,05,09,07,13.80
2015,10,05,09,08,13.90
2015,10,05,09,09,13.90
2015,10,05,09,10,14.00
2015,10,05,09,11,14.00
2015,10,05,09,12,14.10
2015,10,05,09,13,14.10
2015,10,05,09,14,14.20
2015,10,05,09,15,14.20
2015,10,05,09,16,14.20
2015,10,05,09,17,14.30
2015,10,05,09,18,14.30
2015,10,05,09,19,14.40
2015,10,05,09,20,14.40
2015,10,05,09,21,14.40
2015,10,05,09,22,14.40
2015,10,05,09,23,14.50
2015,10,05,09,24,14.50
2015,10,05,09,25,14.50
2015,10,05,09,26,14.60
2015,10,05,09,27,14.60
2015,10,05,09,28,14.60
2015,10,05,09,29,14.70
2015,10,05,09,30,14.70
2015,10,05,09,31,14.70
2015,10,05,09,32,14.70
2015,10,05,09,33,14.70
2015,10,05,09,34,14.70
2015,10,05,09,35,14.70
2015,10,05,09,36,14.70
2015,10,05,09,37,14.70
2015,10,05,09,38,14.80
2015,10,05,09,39,14.80
2015,10,05,09,40,14.80
2015,10,05,09,41,14.80
2015,10,05,09,42,14.80
2015,10,05,09,43,14.80
2015,10,05,09,44,14.80
2015,10,05,09,45,14.80
2015,10,05,09,46,14.90
2015,10,05,09,47,14.90
2015,10,05,09,48,14.90
2015,10,05,09,49,14.90
2015,10,05,09,50,14.90
2015,10,05,09,51,14.90
2015,10,05,09,52,14.90
2015,10,05,09,53,14.90
2015,10,05,09,54,15.00
2015,10,05,09,55,15.00
2015,10,05,09,56,15.00
2015,10,05,09,57,14.90
2015,10,05,09,58,14.90
2015,10,05,09,59,14.90
2015,10,05,10,00,14.90
2015,10,05,10,01,14.90
2015,10,05,10,02,14.90
2015,10,05,10,03,14.90
2015,10,05,10,04,14.90
2015,10,05,10,05,14.90
2015,10,05,10,06,14.90
2015,10,05,10,07,14.90
2015,10,05,10,08,14.90
2015,10,05,10,09,14.90
2015,10,05,10,10,14.90
2015,10,05,10,11,14.90
2015,10,05,10,12,15.00
2015,10,05,10,13,15.00
2015,10,05,10,14,15.00
2015,10,05,10,15,15.00
2015,10,05,10,16,15.10
2015,10,05,10,17,15.10
2015,10,05,10,18,15.10
2015,10,05,10,19,15.10
2015,10,05,10,20,15.10
2015,10,05,10,21,15.10
2015,10,05,10,22,15.10
2015,10,05,10,23,15.10
2015,10,05,10,24,15.10
2015,10,05,10,25,15.20
2015,10,05,10,26,15.20
2015,10,05,10,27,15.20
2015,10,05,10,28,15.20
2015,10,05,10,29,15.20
2015,10,05,10,30,15.20
2015,10,05,10,31,15.30
2015,10,05,10,32,15.30
2015,10,05,10,33,15.30
2015,10,05,10,34,15.30
2015,10,05,10,35,15.30
2015,10,05,10,36,15.30
2015,10,05,10,37,15.30
2015,10,05,10,38,15.30
2015,10,05,10,39,15.30
2015,10,05,10,40,15.30
2015,10,05,10,41,15.30
2015,10,05,10,42,15.30
2015,10,05,10,43,15.40
2015,10,05,10,44,15.40
2015,10,05,10,45,15.40
2015,10,05,10,46,15.30
2015,10,05,10,47,15.30
2015,10,05,10,48,15.30
2015,10,05,10,49,15.30
2015,10,05,10,50,15.30
2015,10,05,10,51,15.30
2015,10,05,10,52,15.40
2015,10,05,10,53,15.40
2015,10,05,10,54,15.40
2015,10,05,10,55,15.30
2015,10,05,10,56,15.30
2015,10,05,10,57,15.30
2015,10,05,10,58,15.30
2015,10,05,10,59,15.30
2015,10,05,11,00,15.30
2015,10,05,11,01,15.40
2015,10,05,11,02,15.40
2015,10,05,11,03,15.40
2015,10,05,11,04,15.50
2015,10,05,11,05,15.50
2015,10,05,11,06,15.60
2015,10,05,11,07,15.60
2015,10,05,11,08,15.70
2015,10,05,11,09,15.70
2015,10,05,11,10,15.80
2015,10,05,11,11,15.80
2015,10,05,11,12,15.80
2015,10,05,11,13,15.90
2015,10,05,11,14,15.90
2015,10,05,11,15,15.90
2015,10,05,11,16,15.90
2015,10,05,11,17,16.00
2015,10,05,11,18,16.00
2015,10,05,11,19,16.00
2015,10,05,11,20,16.10
2015,10,05,11,21,16.10
2015,10,05,11,22,16.10
2015,10,05,11,23,16.20
2015,10,05,11,24,16.20
2015,10,05,11,25,16.30
2015,10,05,11,26,16.30
2015,10,05,11,27,16.30
2015,10,05,11,28,16.30
2015,10,05,11,29,16.20
2015,10,05,11,30,16.20
2015,10,05,11,31,16.20
2015,10,05,11,32,16.20
2015,10,05,11,33,16.20
2015,10,05,11,34,16.20
2015,10,05,11,35,16.20
2015,10,05,11,36,16.20
2015,10,05,11,37,16.20
2015,10,05,11,38,16.20
2015,10,05,11,39,16.20
2015,10,05,11,40,16.10
2015,10,05,11,41,16.10
2015,10,05,11,42,16.10
2015,10,05,11,43,16.10
2015,10,05,11,44,16.10
2015,10,05,11,45,16.10
2015,10,05,11,46,16.10
2015,10,05,11,47,16.20
2015,10,05,11,48,16.20
2015,10,05,11,49,16.20
2015,10,05,11,50,16.20
2015,10,05,11,51,16.20
2015,10,05,11,52,16.20
2015,10,05,11,53,16.20
2015,10,05,11,54,16.20
2015,10,05,11,55,16.20
2015,10,05,11,56,16.30
2015,10,05,11,57,16.30
2015,10,05,11,58,16.30
2015,10,05,11,59,16.40
2015,10,05,12,00,16.40
2015,10,05,12,01,16.50
2015,10,05,12,02,16.50
2015,10,05,12,03,16.60
2015,10,05,12,04,16.60
2015,10,05,12,05,16.60
2015,10,05,12,06,16.60
2015,10,05,12,07,16.60
2015,10,05,12,08,16.60
2015,10,05,12,09,16.70
2015,10,05,12,10,16.70
2015,10,05,12,11,16.70
2015,10,05,12,12,16.70
2015,10,05,12,13,16.70
2015,10,05,12,14,16.70
2015,10,05,12,15,16.80
2015,10,05,12,16,16.80
2015,10,05,12,17,16.90
2015,10,05,12,18,17.00
2015,10,05,12,19,17.00
2015,10,05,12,20,17.10
2015,10,05,12,21,17.10
2015,10,05,12,22,17.20
2015,10,05,12,23,17.20
2015,10,05,12,24,17.20
2015,10,05,12,25,17.20
2015,10,05,12,26,17.20
2015,10,05,12,27,17.20
2015,10,05,12,28,17.20
2015,10,05,12,29,17.20
2015,10,05,12,30,17.30
2015,10,05,12,31,17.30
2015,10,05,12,32,17.30
2015,10,05,12,33,17.30
2015,10,05,12,34,17.30
2015,10,05,12,35,17.20
2015,10,05,12,36,17.20
2015,10,05,12,37,17.20
2015,10,05,12,38,17.10
2015,10,05,12,39,17.20
2015,10,05,12,40,17.10
2015,10,05,12,41,17.20
2015,10,05,12,42,17.20
2015,10,05,12,43,17.20
2015,10,05,12,44,17.20
2015,10,05,12,45,17.20
2015,10,05,12,46,17.10
2015,10,05,12,47,17.10
2015,10,05,12,48,17.10
2015,10,05,12,49,17.10
2015,10,05,12,50,17.10
2015,10,05,12,51,17.10
2015,10,05,12,52,17.10
2015,10,05,12,53,17.20
2015,10,05,12,54,17.20
2015,10,05,12,55,17.10
2015,10,05,12,56,17.10
2015,10,05,12,57,17.10
2015,10,05,12,58,17.10
2015,10,05,12,59,17.10
2015,10,05,13,00,17.10
2015,10,05,13,01,17.00
2015,10,05,13,02,17.00
2015,10,05,13,03,17.00
2015,10,05,13,04,17.00
2015,10,05,13,05,17.00
2015,10,05,13,06,17.00
2015,10,05,13,07,17.00
2015,10,05,13,08,17.00
2015,10,05,13,09,17.10
2015,10,05,13,10,17.10
2015,10,05,13,11,17.20
2015,10,05,13,12,17.20
2015,10,05,13,13,17.20
2015,10,05,13,14,17.30
2015,10,05,13,15,17.30
2015,10,05,13,16,17.30
2015,10,05,13,17,17.30
2015,10,05,13,18,17.40
2015,10,05,13,19,17.40
2015,10,05,13,20,17.40
2015,10,05,13,21,17.50
2015,10,05,13,22,17.50
2015,10,05,13,23,17.60
2015,10,05,13,24,17.60
2015,10,05,13,25,17.70
2015,10,05,13,26,17.70
2015,10,05,13,27,17.70
2015,10,05,13,28,17.70
2015,10,05,13,29,17.60
2015,10,05,13,30,17.60
2015,10,05,13,31,17.60
2015,10,05,13,32,17.50
2015,10,05,13,33,17.60
2015,10,05,13,34,17.60
2015,10,05,13,35,17.70
2015,10,05,13,36,17.70
2015,10,05,13,37,17.80
2015,10,05,13,38,17.80
2015,10,05,13,39,17.80
2015,10,05,13,40,17.90
2015,10,05,13,41,17.90
2015,10,05,13,42,18.00
2015,10,05,13,43,18.00
2015,10,05,13,44,18.10
2015,10,05,13,45,18.10
2015,10,05,13,46,18.20
2015,10,05,13,47,18.20
2015,10,05,13,48,18.30
2015,10,05,13,49,18.30
2015,10,05,13,50,18.30
2015,10,05,13,51,18.30
2015,10,05,13,52,18.30
2015,10,05,13,53,18.30
2015,10,05,13,54,18.30
2015,10,05,13,55,18.30
2015,10,05,13,56,18.30
2015,10,05,13,57,18.30
2015,10,05,13,58,18.30
2015,10,05,13,59,18.20
2015,10,05,14,00,18.20
2015,10,05,14,01,18.20
2015,10,05,14,02,18.20
2015,10,05,14,03,18.20
2015,10,05,14,04,18.20
2015,10,05,14,05,18.30
2015,10,05,14,06,18.40
2015,10,05,14,07,18.40
2015,10,05,14,08,18.40
2015,10,05,14,09,18.50
2015,10,05,14,10,18.40
2015,10,05,14,11,18.30
2015,10,05,14,12,18.30
2015,10,05,14,13,18.30
2015,10,05,14,14,18.30
2015,10,05,14,15,18.30
2015,10,05,14,16,18.40
2015,10,05,14,17,18.40
2015,10,05,14,18,18.40
2015,10,05,14,19,18.40
2015,10,05,14,20,18.40
2015,10,05,14,21,18.40
2015,10,05,14,22,18.40
2015,10,05,14,23,18.40
2015,10,05,14,24,18.50
2015,10,05,14,25,18.60
2015,10,05,14,26,18.60
2015,10,05,14,27,18.70
2015,10,05,14,28,18.80
2015,10,05,14,29,18.80
2015,10,05,14,30,18.80
2015,10,05,14,31,18.80
2015,10,05,14,32,18.80
2015,10,05,14,33,18.80
2015,10,05,14,34,18.80
2015,10,05,14,35,18.80
2015,10,05,14,36,18.80
2015,10,05,14,37,18.90
2015,10,05,14,38,18.90
2015,10,05,14,39,18.90
2015,10,05,14,40,18.90
2015,10,05,14,41,18.90
2015,10,05,14,42,18.90
2015,10,05,14,43,18.90
2015,10,05,14,44,18.90
2015,10,05,14,45,18.90
2015,10,05,14,46,18.90
2015,10,05,14,47,18.90
2015,10,05,14,48,18.90
2015,10,05,14,49,18.80
2015,10,05,14,50,18.80
2015,10,05,14,51,18.80
2015,10,05,14,52,18.70
2015,10,05,14,53,18.70
2015,10,05,14,54,18.70
2015,10,05,14,55,18.70
2015,10,05,14,56,18.80
2015,10,05,14,57,18.80
2015,10,05,14,58,18.80
2015,10,05,14,59,18.90
2015,10,05,15,00,18.90
2015,10,05,15,01,18.90
2015,10,05,15,02,18.90
2015,10,05,15,03,18.80
2015,10,05,15,04,18.80
2015,10,05,15,05,18.80
2015,10,05,15,06,18.80
2015,10,05,15,07,18.90
2015,10,05,15,08,18.90
2015,10,05,15,09,18.90
2015,10,05,15,10,18.90
2015,10,05,15,11,18.90
2015,10,05,15,12,19.00
2015,10,05,15,13,19.00
2015,10,05,15,14,19.10
2015,10,05,15,15,19.20
2015,10,05,15,16,19.30
2015,10,05,15,17,19.30
2015,10,05,15,18,19.30
2015,10,05,15,19,19.30
2015,10,05,15,20,19.30
2015,10,05,15,21,19.30
2015,10,05,15,22,19.30
2015,10,05,15,23,19.30
2015,10,05,15,24,19.30
2015,10,05,15,25,19.30
2015,10,05,15,26,19.30
2015,10,05,15,27,19.30
2015,10,05,15,28,19.30
2015,10,05,15,29,19.30
2015,10,05,15,30,19.30
2015,10,05,15,31,19.30
2015,10,05,15,32,19.40
2015,10,05,15,33,19.40
2015,10,05,15,34,19.40
2015,10,05,15,35,19.50
2015,10,05,15,36,19.40
2015,10,05,15,37,19.40
2015,10,05,15,38,19.40
2015,10,05,15,39,19.40
2015,10,05,15,40,19.40
2015,10,05,15,41,19.40
2015,10,05,15,42,19.40
2015,10,05,15,43,19.40
2015,10,05,15,44,19.30
2015,10,05,15,45,19.30
2015,10,05,15,46,19.20
2015,10,05,15,47,19.10
2015,10,05,15,48,19.00
2015,10,05,15,49,19.00
2015,10,05,15,50,18.90
2015,10,05,15,51,18.90
2015,10,05,15,52,18.80
2015,10,05,15,53,18.80
2015,10,05,15,54,18.80
2015,10,05,15,55,18.80
2015,10,05,15,56,18.80
2015,10,05,15,57,18.80
2015,10,05,15,58,18.80
2015,10,05,15,59,18.90
2015,10,05,16,00,18.90
2015,10,05,16,01,18.90
2015,10,05,16,02,18.90
2015,10,05,16,03,19.00
2015,10,05,16,04,19.00
2015,10,05,16,05,19.00
2015,10,05,16,06,19.00
2015,10,05,16,07,19.00
2015,10,05,16,08,19.00
2015,10,05,16,09,18.90
2015,10,05,16,10,18.90
2015,10,05,16,11,18.90
2015,10,05,16,12,18.90
2015,10,05,16,13,18.90
2015,10,05,16,14,18.90
2015,10,05,16,15,18.90
2015,10,05,16,16,18.90
2015,10,05,16,17,18.90
2015,10,05,16,18,18.90
2015,10,05,16,19,18.90
2015,10,05,16,20,18.90
2015,10,05,16,21,18.90
2015,10,05,16,22,18.90
2015,10,05,16,23,18.90
2015,10,05,16,24,18.90
2015,10,05,16,25,18.90
2015,10,05,16,26,18.90
2015,10,05,16,27,19.00
2015,10,05,16,28,19.00
2015,10,05,16,29,19.00
2015,10,05,16,30,19.00
2015,10,05,16,31,19.10
2015,10,05,16,32,19.10
2015,10,05,16,33,19.10
2015,10,05,16,34,19.10
2015,10,05,16,35,19.10
2015,10,05,16,36,19.10
2015,10,05,16,37,19.00
2015,10,05,16,38,19.00
2015,10,05,16,39,19.00
2015,10,05,16,40,18.90
2015,10,05,16,41,18.90
2015,10,05,16,42,18.90
2015,10,05,16,43,18.90
2015,10,05,16,44,19.00
2015,10,05,16,45,19.00
2015,10,05,16,46,18.90
2015,10,05,16,47,19.00
2015,10,05,16,48,19.00
2015,10,05,16,49,19.00
2015,10,05,16,50,19.00
2015,10,05,16,51,19.00
2015,10,05,16,52,19.00
2015,10,05,16,53,19.00
2015,10,05,16,54,19.00
2015,10,05,16,55,19.10
2015,10,05,16,56,19.10
2015,10,05,16,57,19.10
2015,10,05,16,58,19.10
2015,10,05,16,59,19.20
2015,10,05,17,00,19.20
2015,10,05,17,01,19.20
2015,10,05,17,02,19.20
2015,10,05,17,03,19.20
2015,10,05,17,04,19.20
2015,10,05,17,05,19.20
2015,10,05,17,06,19.20
2015,10,05,17,07,19.20
2015,10,05,17,08,19.20
2015,10,05,17,09,19.20
2015,10,05,17,10,19.20
2015,10,05,17,11,19.20
2015,10,05,17,12,19.20
2015,10,05,17,13,19.20
2015,10,05,17,14,19.20
2015,10,05,17,15,19.30
2015,10,05,17,16,19.30
2015,10,05,17,17,19.30
2015,10,05,17,18,19.30
2015,10,05,17,19,19.30
2015,10,05,17,20,19.40